Location: Bodest
(46.3000°N, 22.5667°E)
Time: 23:54:26
(UTC+00:00)

USA 215 - Pass Details

Date: 16 October 2021
Orbit: 1099 x 1109 km, 123.0° (Epoch: 20 November)

Event Time Altitude Azimuth Distance (km) Brightness Sun altitude
Exits shadow 17:54:55 23° 45° (NE) 2,137 4.5 -23.7°
Maximum altitude 17:57:57 35° 1° (N) 1,712 4.3 -24.3°
Drops below altitude 10° 18:03:43 10° 299° (WNW) 2,967 6.5 -25.2°
Sets 18:06:25 0° 291° (WNW) 3,926 7.5 -25.7°
